Temp
9 9 8 8 8 8 9 9 9 10 10 10 10 10 10 9 9 9 9 9 9 8 8 8 7 7 6 6 6 6 6 6 6 6 5 5 5 5 5 5 5 5 5 6 5 5 6 6 6
9 8 8 7 7 8 9 10 10 10 10 9 9 9 9 9 9 9 8 8 9 9 8 7 7 7 6 6 6 6 5 5 6 5 5 5 5 5 5 5 5 5 5 5 6 6 5 5 6
8 8 8 7 7 9 9 10 10 9 9 9 9 9 9 10 9 8 8 7 8 8 8 8 7 7 7 7 6 6 5 5 5 5 4 5 5 5 5 5 5 5 5 5 5 5 5 6 6
8 8 7 7 9 10 10 10 9 9 9 9 9 8 9 9 9 8 8 7 7 7 7 7 7 7 7 7 7 6 6 5 5 5 5 4 4 5 5 5 5 5 5 5 5 5 5 5 5
8 7 7 8 9 10 9 9 9 9 9 9 8 8 9 9 9 9 8 8 7 7 7 7 7 6 6 6 6 5 4 4 5 5 5 5 4 4 5 5 5 5 5 5 5 5 5 5 5
7 7 7 8 9 9 9 9 8 8 8 8 8 8 8 9 8 8 8 8 7 7 7 7 7 7 6 6 6 5 4 4 4 4 5 5 5 5 5 5 5 5 5 5 5 5 4 5 5
6 6 7 8 9 8 9 8 8 8 8 8 8 8 8 8 8 8 8 8 7 7 7 7 7 7 6 6 6 5 5 4 4 4 4 5 5 5 5 5 5 5 5 5 5 5 5 5 5
6 5 6 7 7 8 8 8 8 8 8 8 8 8 8 8 8 8 7 7 7 7 7 7 6 6 6 6 5 5 4 4 4 4 4 5 5 5 5 5 5 5 5 5 5 5 5 5 5
6 5 6 7 7 8 7 8 8 7 8 8 8 8 8 8 7 7 7 7 7 7 7 7 6 6 5 5 5 5 4 4 4 4 4 4 5 5 5 6 5 5 5 5 5 6 5 5 5
5 6 7 7 7 7 7 7 7 7 7 7 8 8 7 7 7 7 7 7 6 6 6 6 6 5 5 5 4 4 4 4 4 4 4 4 4 4 5 5 5 5 5 6 5 5 5 6 6
6 7 7 7 6 6 6 6 6 6 7 8 7 6 6 6 7 7 6 6 6 5 5 5 5 5 5 5 4 4 4 3 3 3 3 3 4 4 4 4 5 5 5 5 5 5 5 5 6
4 6 6 6 5 5 5 5 6 6 7 7 6 6 6 7 6 6 6 5 5 5 5 5 5 4 4 4 4 4 4 3 3 3 3 3 3 4 4 4 4 5 5 5 5 5 6 6 6
5 6 5 5 6 5 5 6 5 7 7 7 7 7 7 6 6 6 6 6 5 5 4 4 4 4 4 3 3 3 3 3 3 3 3 3 3 3 3 4 4 4 4 4 5 5 5 5 6
4 4 5 5 5 5 5 5 5 8 7 7 7 7 6 6 6 6 6 6 5 5 4 4 3 3 3 3 3 3 2 2 3 3 3 3 3 3 3 3 3 3 3 4 4 4 4 4 5
4 4 4 5 5 5 5 5 6 7 7 7 7 7 6 6 6 6 6 5 4 3 3 3 3 3 2 2 2 2 2 2 2 2 3 3 3 4 4 3 3 3 3 3 3 4 4 4 5
3 3 3 5 5 5 5 5 6 6 7 6 6 6 6 6 6 5 5 5 4 4 3 2 2 2 2 1 1 1 1 1 1 2 2 2 2 3 3 4 4 4 3 3 3 3 4 4 4
2 3 3 4 5 5 5 5 5 5 5 5 5 5 5 5 5 5 5 5 4 3 3 2 2 1 1 1 0 0 -0 -0 -0 0 0 0 1 1 1 2 2 3 3 3 4 4 4 4 3
4 3 3 3 4 4 4 4 5 4 4 4 5 5 6 5 5 4 4 4 3 3 3 2 1 1 0 -0 -0 -1 -1 -1 -1 -1 -1 -0 -0 0 0 0 0 1 1 2 2 3 3 3 3
2 2 2 4 3 2 3 3 4 4 4 5 5 6 6 6 5 4 3 3 2 2 2 1 1 0 -1 -1 -2 -2 -2 -2 -2 -2 -2 -2 -2 -1 -1 -1 -1 -0 1 1 1 2 2 2 3
2 2 3 3 3 2 2 3 3 4 5 5 5 6 6 5 4 3 3 2 1 1 0 -0 -1 -2 -2 -3 -3 -3 -4 -4 -4 -4 -3 -3 -3 -3 -2 -2 -1 -1 -0 0 1 1 1 2 2
2 2 2 2 1 1 0 2 3 4 4 4 5 4 4 5 4 3 1 0 -0 -0 -1 -2 -2 -3 -4 -4 -5 -5 -5 -5 -5 -5 -5 -5 -4 -4 -3 -3 -2 -2 -1 -1 -1 -0 -0 0 1
1 1 1 0 -1 -2 -2 -3 1 2 3 4 3 3 3 3 3 2 1 0 -1 -3 -3 -3 -4 -4 -5 -5 -6 -6 -7 -7 -7 -6 -6 -6 -5 -5 -4 -4 -3 -3 -2 -2 -2 -2 -2 -1 -1
0 -0 -1 -1 -2 -3 -3 -3 1 1 2 3 3 3 3 3 2 1 0 -1 -3 -4 -5 -5 -5 -6 -6 -7 -7 -8 -8 -8 -8 -8 -7 -7 -6 -5 -5 -4 -4 -4 -3 -3 -3 -4 -3 -3 -3
-1 -2 -2 -3 -4 -7 -2 -2 1 2 3 2 2 2 2 1 1 1 0 -1 -2 -4 -5 -6 -6 -6 -7 -8 -8 -9 -9 -9 -9 -9 -8 -8 -7 -6 -6 -5 -5 -5 -5 -5 -4 -5 -5 -5 -5
-2 -3 -4 -5 -9 -5 -3 -5 0 0 1 1 1 0 -0 -1 -1 -1 -1 -1 -2 -3 -4 -5 -6 -6 -7 -8 -9 -9 -10 -10 -10 -9 -9 -8 -8 -8 -7 -7 -7 -7 -7 -7 -7 -7 -7 -7 -7
-3 -4 -4 -4 -7 -8 -6 -6 -1 0 0 -1 -2 -2 -3 -3 -3 -2 -2 -2 -2 -3 -5 -6 -7 -8 -8 -9 -9 -10 -11 -11 -10 -10 -9 -9 -9 -9 -9 -9 -9 -9 -9 -9 -9 -9 -9 -9 -9
-7 -6 -6 -7 -7 -8 -5 -3 -3 -2 -3 -3 -4 -4 -4 -4 -4 -4 -4 -4 -4 -5 -6 -8 -8 -9 -9 -10 -11 -11 -11 -11 -11 -10 -10 -11 -11 -10 -10 -10 -11 -11 -11 -11 -11 -11 -11 -11 -11
-8 -7 -8 -8 -7 -6 -6 -5 -3 -4 -4 -5 -5 -4 -4 -5 -5 -5 -5 -5 -5 -6 -8 -9 -10 -11 -11 -11 -11 -12 -12 -12 -12 -12 -12 -12 -12 -12 -12 -12 -12 -13 -13 -13 -13 -13 -13 -13 -13
-7 -7 -7 -8 -8 -7 -9 -6 -4 -4 -4 -5 -5 -5 -6 -6 -7 -6 -7 -7 -7 -7 -9 -11 -12 -12 -12 -12 -13 -13 -13 -13 -13 -13 -13 -13 -13 -13 -13 -13 -14 -14 -14 -14 -14 -14 -14 -14 -14
-7 -7 -8 -8 -8 -8 -8 -7 -5 -4 -5 -5 -6 -7 -8 -8 -8 -8 -8 -8 -7 -8 -10 -11 -12 -12 -13 -13 -14 -14 -14 -14 -14 -14 -14 -13 -13 -14 -14 -14 -15 -15 -15 -15 -14 -14 -14 -15 -15
Height
3124 3125 3124 3125 3129 3122 3117 3117 3118 3119 3121 3122 3123 3123 3124 3124 3125 3128 3124 3124 3125 3127 3129 3131 3132 3133 3134 3135 3136 3138 3138 3138 3140 3142 3143 3143 3144 3146 3148 3149 3150 3150 3151 3151 3151 3152 3153 3154 3154
3121 3122 3123 3122 3122 3117 3113 3113 3114 3116 3117 3118 3119 3120 3120 3120 3119 3120 3121 3123 3123 3125 3126 3128 3130 3130 3131 3132 3133 3135 3136 3136 3137 3138 3140 3141 3142 3144 3146 3147 3148 3150 3150 3151 3151 3152 3152 3153 3154
3119 3119 3120 3118 3115 3112 3111 3112 3114 3113 3114 3115 3116 3116 3116 3115 3114 3115 3117 3119 3120 3122 3123 3125 3126 3127 3128 3129 3130 3132 3133 3134 3135 3136 3137 3138 3139 3141 3144 3146 3147 3148 3148 3149 3150 3151 3151 3153 3153
3115 3116 3116 3112 3108 3109 3109 3110 3111 3111 3112 3112 3113 3113 3112 3112 3112 3112 3113 3114 3115 3117 3119 3120 3121 3123 3124 3125 3127 3128 3129 3130 3131 3133 3134 3136 3136 3138 3140 3142 3144 3145 3146 3147 3149 3149 3150 3151 3153
3111 3110 3109 3104 3103 3104 3106 3107 3108 3108 3108 3110 3110 3110 3109 3109 3110 3110 3109 3110 3110 3111 3113 3115 3116 3117 3119 3120 3121 3122 3125 3127 3128 3129 3130 3132 3133 3135 3135 3137 3139 3142 3143 3144 3146 3147 3148 3149 3151
3106 3106 3103 3098 3098 3101 3102 3103 3103 3103 3104 3105 3106 3106 3106 3106 3107 3106 3107 3108 3108 3109 3110 3110 3111 3112 3113 3115 3116 3119 3121 3122 3124 3125 3126 3127 3129 3131 3132 3134 3134 3138 3139 3140 3141 3143 3144 3146 3147
3101 3100 3096 3095 3094 3097 3098 3099 3098 3100 3099 3100 3100 3100 3101 3102 3102 3102 3103 3104 3105 3106 3108 3109 3109 3109 3109 3110 3112 3114 3116 3117 3119 3120 3122 3123 3124 3126 3127 3130 3131 3133 3134 3135 3137 3139 3141 3142 3143
3098 3096 3092 3090 3091 3090 3094 3093 3094 3094 3095 3095 3095 3094 3096 3097 3098 3097 3098 3100 3101 3103 3104 3106 3107 3108 3109 3109 3109 3110 3112 3113 3114 3116 3117 3119 3120 3121 3122 3123 3125 3127 3129 3130 3132 3134 3136 3137 3139
3093 3091 3085 3086 3087 3087 3088 3089 3089 3089 3089 3089 3089 3090 3091 3092 3092 3093 3093 3094 3096 3098 3100 3102 3103 3105 3106 3106 3107 3108 3109 3110 3111 3113 3114 3115 3116 3117 3117 3118 3120 3121 3122 3125 3127 3128 3129 3132 3133
3087 3083 3080 3083 3083 3083 3083 3083 3084 3083 3083 3082 3084 3085 3086 3087 3087 3087 3089 3090 3092 3093 3095 3096 3098 3099 3100 3101 3103 3104 3106 3107 3108 3108 3108 3109 3110 3111 3112 3113 3114 3116 3117 3118 3119 3122 3124 3126 3127
3079 3075 3077 3078 3078 3078 3077 3077 3076 3077 3076 3078 3082 3081 3080 3080 3081 3082 3084 3085 3087 3087 3089 3091 3092 3094 3096 3097 3098 3099 3100 3101 3103 3103 3104 3104 3104 3106 3106 3107 3108 3110 3111 3113 3114 3115 3117 3119 3121
3073 3072 3073 3072 3073 3073 3072 3071 3069 3070 3073 3073 3074 3074 3073 3074 3075 3076 3077 3078 3079 3081 3083 3085 3087 3088 3090 3091 3092 3093 3094 3094 3095 3096 3096 3097 3098 3100 3101 3102 3102 3103 3104 3106 3108 3109 3110 3112 3114
3066 3068 3068 3068 3067 3067 3065 3065 3063 3064 3066 3067 3067 3067 3068 3068 3069 3070 3070 3071 3073 3075 3076 3079 3081 3083 3084 3085 3086 3087 3089 3090 3090 3090 3090 3091 3092 3093 3094 3095 3096 3097 3098 3099 3101 3102 3104 3106 3108
3063 3062 3062 3061 3062 3059 3059 3058 3055 3062 3060 3060 3060 3061 3061 3062 3062 3063 3064 3065 3067 3069 3070 3072 3073 3075 3077 3078 3078 3080 3081 3083 3084 3084 3084 3084 3085 3085 3086 3087 3088 3090 3091 3093 3094 3095 3096 3098 3100
3057 3056 3056 3056 3057 3054 3053 3044 3049 3055 3054 3053 3053 3054 3054 3055 3055 3057 3058 3058 3060 3062 3063 3064 3066 3067 3068 3070 3072 3073 3074 3076 3077 3077 3077 3077 3078 3079 3079 3080 3081 3081 3082 3084 3086 3088 3090 3091 3092
3054 3051 3048 3050 3051 3048 3048 3033 3047 3047 3047 3047 3047 3048 3048 3048 3049 3050 3051 3052 3053 3054 3055 3057 3059 3060 3062 3063 3064 3065 3066 3067 3068 3069 3071 3072 3071 3072 3072 3073 3074 3074 3075 3077 3078 3079 3080 3083 3085
3049 3043 3042 3044 3046 3042 3041 3033 3041 3041 3041 3041 3042 3042 3041 3041 3041 3042 3044 3045 3046 3047 3048 3050 3052 3053 3054 3056 3058 3059 3060 3061 3062 3063 3064 3065 3065 3066 3066 3066 3067 3067 3068 3069 3070 3071 3072 3074 3075
3041 3039 3038 3037 3039 3034 3032 3028 3034 3034 3033 3034 3034 3034 3034 3033 3034 3034 3035 3037 3037 3039 3040 3042 3044 3046 3047 3049 3050 3051 3053 3054 3055 3057 3058 3058 3058 3058 3059 3060 3061 3061 3062 3063 3064 3064 3064 3065 3067
3039 3037 3034 3035 3033 3029 3025 3019 3025 3027 3023 3025 3025 3024 3023 3023 3023 3023 3025 3027 3028 3030 3032 3034 3036 3038 3040 3041 3042 3044 3045 3047 3048 3049 3050 3050 3050 3050 3051 3053 3054 3054 3055 3056 3057 3056 3056 3056 3057
3033 3030 3027 3027 3027 3022 3017 3008 3013 3017 3013 3015 3015 3014 3013 3011 3011 3012 3014 3016 3020 3023 3025 3027 3028 3029 3031 3033 3035 3037 3038 3039 3041 3041 3041 3042 3042 3043 3044 3045 3046 3047 3046 3045 3045 3046 3046 3045 3045
3028 3025 3021 3022 3020 3015 3008 2995 3000 3004 3005 3007 3005 3003 3001 3001 3001 3002 3004 3008 3012 3015 3017 3019 3020 3021 3023 3024 3027 3029 3030 3031 3033 3034 3034 3034 3035 3036 3037 3037 3037 3037 3037 3037 3036 3037 3037 3037 3036
3019 3021 3018 3014 3014 3008 3007 2992 2992 2995 2997 2997 2995 2993 2991 2990 2992 2994 2995 2997 3000 3006 3009 3011 3012 3014 3015 3016 3018 3020 3022 3024 3025 3025 3026 3026 3027 3028 3028 3029 3029 3029 3028 3027 3025 3025 3025 3025 3024
3014 3012 3012 3010 3007 3004 2999 3005 2982 2988 2989 2988 2987 2988 2987 2985 2985 2986 2987 2989 2992 2996 3000 3002 3004 3006 3008 3010 3011 3013 3015 3016 3017 3018 3019 3019 3019 3020 3020 3020 3020 3019 3019 3018 3017 3016 3015 3015 3015
3009 3007 3006 3005 3004 3001 2991 2997 2973 2983 2983 2983 2985 2983 2981 2981 2981 2981 2982 2983 2985 2989 2991 2995 2997 2999 3001 3002 3004 3006 3008 3010 3011 3012 3012 3012 3012 3011 3011 3010 3010 3009 3008 3007 3006 3005 3005 3006 3006
3003 3003 3006 3003 3003 2990 2986 2988 2976 2979 2980 2980 2980 2980 2979 2979 2979 2978 2978 2978 2980 2983 2986 2989 2992 2993 2995 2996 2998 3000 3002 3003 3004 3005 3005 3005 3004 3003 3001 3000 2998 2997 2996 2996 2995 2995 2993 2992 2992
2999 3000 3001 2995 2997 2990 2986 2980 2974 2975 2975 2976 2977 2976 2975 2975 2976 2976 2977 2977 2977 2978 2980 2982 2984 2986 2987 2988 2990 2993 2995 2997 2998 2998 2999 2998 2996 2994 2991 2988 2986 2985 2985 2984 2984 2984 2984 2983 2981
2997 2996 2997 2993 2990 2990 2981 2977 2976 2973 2972 2972 2973 2972 2973 2973 2973 2973 2974 2974 2974 2974 2975 2977 2978 2979 2980 2980 2982 2985 2988 2989 2990 2991 2990 2988 2987 2985 2983 2980 2978 2976 2976 2975 2974 2974 2974 2973 2973
2995 2995 2993 2993 2991 2983 2973 2971 2969 2969 2969 2969 2970 2969 2970 2970 2969 2969 2969 2969 2968 2967 2968 2969 2970 2972 2973 2975 2976 2978 2980 2981 2981 2981 2979 2978 2976 2975 2973 2972 2971 2970 2968 2966 2965 2965 2964 2964 2964
2993 2989 2989 2989 2986 2982 2979 2969 2968 2968 2967 2967 2967 2965 2964 2963 2962 2961 2961 2960 2961 2960 2961 2964 2964 2965 2967 2969 2970 2971 2972 2972 2971 2970 2969 2968 2967 2966 2965 2965 2964 2963 2961 2959 2957 2956 2956 2956 2955
2983 2982 2983 2984 2982 2979 2978 2968 2965 2966 2967 2966 2963 2958 2956 2956 2955 2954 2955 2955 2955 2956 2957 2958 2959 2960 2961 2962 2964 2964 2964 2963 2963 2962 2960 2959 2959 2958 2957 2957 2956 2955 2953 2951 2949 2949 2948 2947 2947
Wind_Speed
13 11 11 12 10 13 23 24 24 21 17 16 17 18 20 22 24 14 13 11 13 17 20 18 15 17 16 15 18 18 15 14 14 12 13 11 10 9 12 10 7 8 9 11 11 10 8 7 6
14 13 13 13 14 20 22 23 24 21 19 18 17 18 22 24 27 27 25 17 11 11 13 18 18 16 17 16 18 19 17 15 15 14 15 14 12 13 12 12 10 11 9 7 8 9 10 11 11
15 15 15 12 19 29 22 20 15 17 20 19 20 20 22 24 23 25 24 21 17 16 15 15 19 20 18 16 17 20 19 17 16 16 16 17 16 14 15 14 13 12 15 15 12 10 10 9 9
17 18 18 21 23 18 21 24 16 17 16 17 20 21 23 21 21 21 25 27 24 23 20 18 19 20 21 19 19 21 19 20 17 18 19 18 19 21 19 16 17 15 14 14 15 14 14 11 10
19 22 23 26 27 26 24 20 20 20 20 19 20 22 23 21 17 20 22 24 25 25 21 21 22 22 23 22 21 20 21 20 18 19 20 20 18 22 23 21 19 19 19 18 17 17 16 15 14
22 25 22 30 30 26 24 25 25 24 24 21 22 21 21 21 21 20 22 24 25 24 24 23 22 23 23 21 21 22 23 22 22 21 21 22 22 21 22 23 24 23 21 21 20 20 18 19 17
25 27 31 33 32 28 25 26 28 25 24 23 24 23 24 22 22 23 24 24 25 25 25 24 24 24 24 23 21 21 22 22 23 23 22 22 22 24 24 25 24 24 25 25 25 25 24 24 21
26 29 34 35 34 35 28 28 25 26 26 24 22 26 23 20 21 24 26 26 26 26 25 25 24 24 24 24 23 24 24 24 24 24 24 25 25 26 26 27 27 27 28 27 26 27 27 27 26
25 30 37 36 35 34 28 25 26 26 29 28 27 25 22 22 22 22 26 28 28 27 26 26 26 25 25 25 26 26 26 25 25 27 27 27 28 28 28 29 28 29 29 29 29 29 28 29 29
28 34 37 35 34 33 30 28 25 27 27 30 28 25 24 22 24 22 23 24 27 28 28 27 27 26 27 27 26 26 27 27 28 29 29 30 30 30 30 31 31 30 31 31 31 30 30 31 30
32 37 35 34 34 31 28 27 26 28 32 30 25 26 28 28 25 25 24 25 25 28 29 29 28 28 28 28 28 28 29 29 29 30 31 32 31 30 29 29 29 29 28 29 29 29 30 31 31
33 35 34 34 32 33 34 35 34 32 29 29 30 32 33 30 27 25 25 27 29 29 30 30 30 30 31 31 31 32 32 32 32 33 33 32 31 29 28 28 29 29 29 29 29 29 30 31 31
33 32 33 33 32 31 32 33 34 34 32 33 33 33 33 30 29 27 28 30 30 31 31 31 31 32 32 33 33 33 34 34 34 34 34 33 32 31 30 30 30 30 30 29 28 28 29 30 31
30 28 27 28 28 31 33 35 37 30 31 32 31 30 29 28 28 29 29 30 30 30 32 32 33 33 34 34 34 34 34 33 33 33 33 32 32 33 33 33 32 31 30 30 30 29 29 29 29
31 33 32 31 32 36 34 43 37 28 28 29 28 28 28 28 29 28 29 31 29 29 32 34 34 34 34 34 35 34 34 33 32 32 32 32 33 35 36 36 36 34 32 31 30 31 31 32 32
25 29 33 30 30 34 32 45 27 25 26 25 24 24 24 24 24 26 28 29 31 33 34 35 35 35 35 35 35 35 34 34 33 33 33 34 35 37 37 38 39 39 36 34 34 34 34 34 34
29 35 35 33 29 31 32 37 28 24 23 22 21 22 25 29 30 29 27 27 30 33 35 36 36 36 37 37 36 36 35 34 33 34 34 35 37 38 37 37 37 37 37 37 37 37 38 38 37
30 29 29 27 28 28 32 39 31 32 35 34 34 35 37 38 36 34 31 30 31 32 35 37 37 37 38 37 37 37 36 35 35 36 36 35 35 36 36 35 34 34 36 36 38 39 40 41 41
29 33 37 34 34 38 42 47 40 38 41 38 36 35 34 33 35 36 35 35 34 35 36 36 36 37 37 38 38 38 37 37 36 34 34 34 34 34 34 34 34 34 36 37 37 38 39 40 41
26 31 36 37 38 38 40 49 45 40 42 38 33 32 33 39 41 41 41 40 37 35 35 35 36 36 37 38 38 38 37 36 35 34 33 33 33 33 33 33 33 34 35 36 37 37 39 40 42
29 34 37 38 39 43 45 54 40 22 22 34 28 33 34 33 35 38 39 39 36 35 33 34 34 34 36 36 36 36 36 35 34 33 32 31 31 31 31 31 31 32 34 36 37 37 37 39 41
37 36 35 34 29 19 18 14 29 33 28 26 23 22 21 24 25 26 27 30 33 30 30 32 33 34 34 36 36 36 35 34 33 31 29 29 29 29 29 30 32 33 34 36 36 37 36 36 38
35 31 28 28 24 24 22 10 29 20 34 12 8 11 19 20 21 18 17 17 19 23 28 29 31 31 32 33 34 34 34 32 30 28 27 27 28 29 31 32 33 34 34 34 35 35 36 35 36
28 28 23 22 19 7 24 18 30 18 6 5 13 18 19 12 15 15 12 11 12 18 25 29 30 30 31 31 32 32 31 29 26 25 26 27 29 30 32 33 34 35 35 35 35 35 35 35 34
27 23 4 4 2 7 7 14 26 9 13 17 10 14 13 10 10 10 10 9 7 11 18 22 24 26 27 28 30 30 28 26 24 24 25 27 29 31 32 33 33 34 34 35 35 34 34 34 34
10 16 8 6 2 4 5 8 3 6 10 13 3 8 14 18 16 14 15 14 10 12 14 18 21 24 25 27 29 28 25 24 24 25 27 28 29 31 33 32 32 33 34 35 36 35 34 34 34
7 12 11 8 17 4 7 9 8 3 11 11 16 20 24 23 18 16 12 11 12 12 12 15 19 22 25 26 26 25 24 24 25 28 29 29 29 30 31 31 31 32 33 34 35 34 33 34 33
15 16 6 6 4 5 3 6 7 4 8 20 23 27 27 25 26 24 23 24 22 19 17 19 21 22 23 25 26 26 25 25 26 28 28 29 30 30 30 30 30 31 32 33 34 34 33 33 32
19 19 14 9 6 3 2 6 3 13 24 16 18 23 30 35 33 25 15 15 18 20 19 20 22 23 23 24 27 26 25 26 26 27 29 30 32 31 30 30 30 30 32 33 34 34 33 33 32
22 21 18 7 4 7 6 12 18 5 13 22 33 36 34 28 22 22 20 16 17 20 22 23 22 23 25 28 29 26 26 25 26 29 30 31 31 32 31 31 30 31 32 33 34 33 33 33 31
Wind_Direction
251 245 226 213 210 227 233 235 240 243 243 248 248 251 258 258 260 260 266 251 245 238 228 228 222 222 228 235 241 242 233 239 245 228 236 234 229 235 233 235 219 210 211 204 194 195 206 192 179
245 242 234 224 230 234 242 240 242 245 245 246 241 246 254 263 263 263 258 258 241 214 223 234 222 226 242 246 237 235 236 236 252 250 244 248 244 243 237 239 232 227 212 215 221 225 212 201 190
243 241 237 226 237 241 251 259 250 237 237 235 239 244 251 260 267 254 254 242 237 233 243 244 225 228 243 258 239 235 241 242 245 257 249 252 256 260 253 252 246 241 234 236 232 223 224 219 211
239 236 232 233 240 257 256 258 246 239 245 244 246 251 261 269 262 257 249 248 244 248 246 237 229 235 251 255 248 244 239 243 252 252 262 246 251 255 255 252 251 248 245 243 245 236 236 234 232
235 237 234 243 247 253 256 254 247 247 247 250 256 261 267 269 264 257 250 247 243 243 240 238 235 239 244 251 251 249 249 243 249 250 257 255 244 250 257 261 260 255 253 247 247 248 247 241 235
231 234 236 244 256 258 259 256 253 253 256 255 258 268 267 269 267 258 252 249 247 241 238 237 240 247 249 245 243 242 244 246 246 245 251 254 253 253 250 254 258 255 257 256 254 255 252 249 241
234 237 242 251 260 262 262 261 257 261 257 259 262 264 270 269 263 262 254 248 247 246 243 244 245 246 247 249 250 249 249 250 250 251 250 250 253 257 254 253 255 255 254 251 253 255 256 253 246
239 241 247 253 258 267 266 265 263 262 264 263 263 264 277 275 264 258 254 250 248 247 250 250 247 247 248 251 251 250 248 249 252 253 255 256 258 258 258 259 259 258 257 255 254 252 252 252 252
244 242 250 255 260 269 272 269 271 268 260 264 265 265 270 274 272 261 254 250 249 248 249 252 253 253 251 249 249 251 252 252 253 253 255 257 259 260 262 261 260 261 261 259 256 256 255 253 250
245 247 256 262 264 268 271 270 267 267 264 260 261 266 273 275 272 264 255 251 249 250 250 250 251 253 252 253 251 250 249 250 252 256 260 261 262 262 261 261 261 259 259 261 261 255 253 253 252
252 256 265 264 266 266 266 265 268 263 261 268 275 274 271 273 270 265 257 249 243 242 243 247 250 251 253 254 256 257 258 260 261 262 262 263 262 261 260 258 257 258 257 257 256 258 257 255 253
255 262 263 265 265 264 263 265 266 264 267 270 273 271 271 276 274 265 259 252 246 245 244 243 243 245 247 250 253 256 260 262 266 269 272 272 269 265 262 260 260 260 259 257 255 255 255 256 257
262 267 265 266 267 265 264 265 268 265 269 269 270 271 273 273 269 265 258 252 247 244 243 242 243 245 247 249 250 252 256 260 264 267 267 267 267 268 269 267 265 263 262 261 259 255 251 249 250
262 267 266 263 262 265 269 269 266 268 269 272 273 271 270 268 264 261 259 258 253 249 247 246 245 246 248 248 249 252 255 258 260 261 263 266 269 271 272 271 269 266 262 260 260 261 260 259 256
262 263 264 262 268 274 275 269 269 279 274 272 269 267 265 262 260 259 259 256 252 248 247 247 247 247 247 249 253 255 258 259 258 258 259 260 263 265 268 269 269 269 267 266 263 260 260 261 263
261 268 269 270 272 275 273 270 281 274 271 270 270 267 263 259 260 257 259 258 252 247 247 247 248 249 251 252 253 255 256 257 258 259 261 263 262 261 261 262 262 262 261 262 263 267 269 266 261
264 263 270 277 277 275 271 273 283 279 277 276 275 267 266 265 267 266 265 259 256 251 248 248 248 249 250 252 255 256 257 257 258 258 260 261 262 262 260 258 257 256 258 261 263 265 266 268 269
262 264 273 278 279 277 277 277 278 280 279 278 276 275 274 272 273 270 265 258 253 250 249 248 247 249 251 253 254 255 256 256 257 258 260 262 261 259 257 254 255 258 261 263 264 266 267 267 266
274 276 279 280 281 283 282 283 283 283 279 281 282 282 278 274 270 267 260 256 254 251 249 249 250 252 252 253 253 254 254 255 256 258 260 261 259 257 255 255 258 260 262 263 265 265 265 264 264
269 272 274 283 283 282 286 282 283 283 284 288 285 280 274 268 266 264 263 261 257 256 254 252 251 251 252 253 253 252 252 254 255 258 259 257 254 252 253 256 259 263 268 270 271 270 269 268 266
277 273 279 281 284 284 287 287 292 288 286 297 291 276 269 269 273 271 266 265 263 260 258 254 253 252 252 252 252 253 254 256 258 260 259 257 255 255 259 265 270 274 275 275 273 270 267 266 265
279 283 280 281 279 277 277 291 286 290 294 300 282 269 268 269 272 278 276 269 261 256 253 250 251 251 251 250 250 251 253 255 257 258 258 257 259 263 267 272 274 276 276 275 274 272 270 268 267
274 279 279 277 273 277 266 255 284 282 294 264 263 290 297 287 282 285 281 268 254 244 245 250 250 250 252 252 252 252 254 257 259 261 261 264 268 272 277 278 278 278 276 274 273 272 270 268 267
273 273 276 279 273 264 264 229 281 287 217 210 283 284 297 306 308 304 298 284 262 235 238 244 249 252 253 253 252 252 254 256 259 263 269 275 279 282 284 284 284 283 280 276 273 271 271 270 268
260 260 300 273 169 249 244 202 249 234 221 279 274 287 305 351 1 350 340 332 299 259 249 249 251 255 257 255 252 251 252 255 258 265 273 279 284 287 287 287 287 288 286 284 281 279 277 275 274
272 239 206 249 252 297 214 232 211 242 264 294 320 59 21 16 6 356 334 321 301 281 263 254 251 252 252 249 248 247 249 254 263 270 277 284 288 289 290 291 291 290 288 286 285 284 282 280 280
271 223 234 260 269 255 248 280 281 92 80 45 353 349 341 337 349 345 336 329 316 295 274 256 255 255 250 245 240 240 244 253 265 275 284 289 290 291 290 289 287 285 284 284 283 282 281 281 280
250 264 246 211 260 240 239 270 181 354 347 341 329 326 319 315 321 316 310 302 299 282 256 247 243 243 243 240 236 237 247 262 275 285 292 294 296 295 292 288 286 284 283 282 282 282 281 279 276
292 282 264 235 232 266 301 277 190 310 310 317 322 319 315 316 314 315 308 293 278 271 262 251 247 246 241 234 232 241 258 272 284 292 293 296 297 295 292 289 286 284 283 282 281 280 278 276 273
266 264 261 217 213 237 271 269 288 288 307 304 305 306 312 314 304 299 297 287 282 272 261 253 250 243 232 234 236 249 267 275 288 295 296 297 296 294 290 287 285 283 282 280 280 279 277 274 269